Change the Weather History Date:

Wednesday, October 12, 2011

  Actual Average (KBUO) Record (KBUO)
Temperature  
Mean Temperature 52 °F -  
Max Temperature 71 °F 79 °F 93 °F (1999)
Min Temperature 33 °F 51 °F 37 °F (1997)
Degree Days  
Heating Degree Days 13    
Growing Degree Days 2 (Base 50)    
Moisture  
Dew Point 27 °F    
Average Humidity 46    
Maximum Humidity 87    
Minimum Humidity 14    
Precipitation  
Precipitation 0.00 in - - ()
Sea Level Pressure  
Sea Level Pressure 30.28 in    
Wind  
Wind Speed 2 mph (ENE)    
Max Wind Speed 10 mph    
Max Gust Speed -    
Visibility 10 miles    
Events      
Averages and records for this station are not official NWS values.
T = Trace of Precipitation, MM = Missing Value Source: NWS Daily Summary

Daily Weather History Graph

Daily Weather History Graph

Search for Another Location

Airport or City:

Trip Planner

Search our weather history database for the weather conditions in past years. The results will help you decide how hot, cold, wet, or windy it might be!

Date:

Astronomy

Oct. 12, 2011 Rise Set
Actual Time 6:50 AM PDT 6:17 PM PDT
Civil Twilight 6:24 AM PDT 6:42 PM PDT
Nautical Twilight 5:55 AM PDT 7:11 PM PDT
Astronomical Twilight 5:26 AM PDT 7:40 PM PDT
Moon 6:27 PM PDT (10/12) 7:24 AM PDT (10/12)
Length of Visible Light 12h 17m
Length of Day
11h 26m
Full, 100% of the Moon is Illuminated
Oct 12
Full
Oct 19
Last Quarter
Oct 26
New
Nov 2
First Quarter
Nov 10
Full

Hourly Weather History & Observations

Time (PDT) Temp. Dew Point Humidity Pressure Visibility Wind Dir Wind Speed Gust Speed Precip Events Conditions
12:35 AM 37.4 °F 32.0 °F 81% 30.26 in 10.0 mi Calm Calm - N/A   Clear
1:15 AM 37.4 °F 30.2 °F 75% 30.27 in 10.0 mi Calm Calm - N/A   Clear
1:35 AM 37.4 °F 30.2 °F 75% 30.27 in 10.0 mi Calm Calm - N/A   Clear
1:55 AM 37.4 °F 30.2 °F 75% 30.27 in 10.0 mi Calm Calm - N/A   Clear
2:15 AM 37.4 °F 30.2 °F 75% 30.27 in 10.0 mi Calm Calm - N/A   Clear
2:35 AM 35.6 °F 30.2 °F 81% 30.27 in 10.0 mi Calm Calm - N/A   Clear
2:55 AM 35.6 °F 30.2 °F 81% 30.26 in 10.0 mi Calm Calm - N/A   Clear
3:15 AM 35.6 °F 30.2 °F 81% 30.26 in 10.0 mi Calm Calm - N/A   Clear
3:35 AM 35.6 °F 30.2 °F 81% 30.26 in 10.0 mi Calm Calm - N/A   Clear
3:55 AM 35.6 °F 30.2 °F 81% 30.26 in 10.0 mi Calm Calm - N/A   Clear
4:15 AM 35.6 °F 30.2 °F 81% 30.26 in 10.0 mi Calm Calm - N/A   Clear
4:35 AM 35.6 °F 30.2 °F 81% 30.27 in 10.0 mi Calm Calm - N/A   Clear
4:55 AM 35.6 °F 30.2 °F 81% 30.27 in 10.0 mi Calm Calm - N/A   Clear
5:15 AM 35.6 °F 30.2 °F 81% 30.27 in 10.0 mi Calm Calm - N/A   Clear
5:35 AM 35.6 °F 30.2 °F 81% 30.27 in 10.0 mi Calm Calm - N/A   Clear
5:55 AM 35.6 °F 30.2 °F 81% 30.27 in 10.0 mi Calm Calm - N/A   Clear
6:15 AM 33.8 °F 30.2 °F 87% 30.28 in 10.0 mi Calm Calm - N/A   Clear
6:35 AM 33.8 °F 30.2 °F 87% 30.27 in 10.0 mi Calm Calm - N/A   Clear
7:15 AM 33.8 °F 30.2 °F 87% 30.28 in 10.0 mi Calm Calm - N/A   Clear
7:35 AM 35.6 °F 30.2 °F 81% 30.28 in 10.0 mi Calm Calm - N/A   Clear
8:15 AM 42.8 °F 32.0 °F 66% 30.29 in 10.0 mi Calm Calm - N/A   Clear
8:35 AM 46.4 °F 33.8 °F 62% 30.30 in 10.0 mi Calm Calm - N/A   Clear
8:55 AM 50.0 °F 32.0 °F 50% 30.30 in 10.0 mi Calm Calm - N/A   Clear
9:15 AM 55.4 °F 32.0 °F 41% 30.31 in 10.0 mi Calm Calm - N/A   Clear
9:35 AM 59.0 °F 35.6 °F 42% 30.31 in 10.0 mi ENE 3.5 mph - N/A   Clear
9:55 AM 64.4 °F 26.6 °F 24% 30.30 in 7.0 mi East 6.9 mph - N/A   Clear
10:15 AM 66.2 °F 26.6 °F 23% 30.30 in 10.0 mi ENE 6.9 mph - N/A   Clear
10:35 AM 68.0 °F 24.8 °F 20% 30.30 in 10.0 mi East 5.8 mph - N/A   Clear
10:55 AM 68.0 °F 21.2 °F 17% 30.30 in 7.0 mi ENE 6.9 mph - N/A   Clear
11:15 AM 68.0 °F 21.2 °F 17% 30.30 in 10.0 mi ENE 9.2 mph - N/A   Clear
11:35 AM 68.0 °F 21.2 °F 17% 30.30 in 7.0 mi NE 8.1 mph - N/A   Clear
12:15 PM 69.8 °F 21.2 °F 16% 30.29 in 10.0 mi East 5.8 mph - N/A   Clear
12:35 PM 69.8 °F 21.2 °F 16% 30.29 in 10.0 mi ENE 8.1 mph - N/A   Clear
12:55 PM 69.8 °F 23.0 °F 17% 30.28 in 10.0 mi ENE 10.4 mph - N/A   Clear
1:15 PM 69.8 °F 23.0 °F 17% 30.27 in 10.0 mi ENE 8.1 mph - N/A   Clear
1:35 PM 71.6 °F 23.0 °F 16% 30.27 in 10.0 mi East 9.2 mph - N/A   Clear
2:15 PM 71.6 °F 23.0 °F 16% 30.26 in 10.0 mi East 10.4 mph - N/A   Clear
2:35 PM 69.8 °F 21.2 °F 16% 30.26 in 10.0 mi East 10.4 mph - N/A   Clear
2:55 PM 69.8 °F 21.2 °F 16% 30.26 in 10.0 mi East 9.2 mph - N/A   Clear
3:15 PM 69.8 °F 21.2 °F 16% 30.27 in 10.0 mi East 6.9 mph - N/A   Clear
3:35 PM 71.6 °F 19.4 °F 14% 30.27 in 10.0 mi ENE 9.2 mph - N/A   Clear
3:55 PM 71.6 °F 19.4 °F 14% 30.27 in 10.0 mi NE 9.2 mph - N/A   Clear
4:15 PM 69.8 °F 17.6 °F 14% 30.27 in 10.0 mi NE 6.9 mph - N/A   Clear
4:35 PM 69.8 °F 19.4 °F 15% 30.27 in 10.0 mi ENE 10.4 mph - N/A   Clear
4:55 PM 69.8 °F 19.4 °F 15% 30.27 in 10.0 mi ENE 9.2 mph - N/A   Clear
5:15 PM 68.0 °F 19.4 °F 16% 30.27 in 10.0 mi ENE 8.1 mph - N/A   Clear
5:35 PM 68.0 °F 19.4 °F 16% 30.27 in 10.0 mi East 8.1 mph - N/A   Clear
5:55 PM 64.4 °F 23.0 °F 21% 30.28 in 10.0 mi East 3.5 mph - N/A   Clear
6:15 PM 62.6 °F 28.4 °F 27% 30.27 in 10.0 mi Calm Calm - N/A   Clear
6:35 PM 57.2 °F 26.6 °F 31% 30.27 in 10.0 mi Calm Calm - N/A   Clear
6:55 PM 55.4 °F 28.4 °F 36% 30.28 in 10.0 mi Calm Calm - N/A   Clear
7:15 PM 51.8 °F 28.4 °F 41% 30.28 in 10.0 mi Calm Calm - N/A   Clear
7:35 PM 51.8 °F 28.4 °F 41% 30.29 in 10.0 mi Calm Calm - N/A   Clear
7:55 PM 50.0 °F 28.4 °F 43% 30.29 in 10.0 mi Calm Calm - N/A   Clear
8:15 PM 48.2 °F 26.6 °F 43% 30.29 in 10.0 mi Calm Calm - N/A   Clear
8:35 PM 46.4 °F 26.6 °F 46% 30.30 in 10.0 mi Calm Calm - N/A   Clear
8:55 PM 46.4 °F 24.8 °F 43% 30.30 in 10.0 mi Calm Calm - N/A   Clear
9:15 PM 46.4 °F 26.6 °F 46% 30.30 in 10.0 mi Calm Calm - N/A   Clear
9:35 PM 44.6 °F 23.0 °F 43% 30.31 in 10.0 mi Calm Calm - N/A   Clear
9:55 PM 44.6 °F 23.0 °F 43% 30.31 in 10.0 mi Calm Calm - N/A   Clear
10:15 PM 42.8 °F 23.0 °F 46% 30.31 in 10.0 mi Calm Calm - N/A   Clear
10:35 PM 42.8 °F 26.6 °F 53% 30.31 in 10.0 mi Calm Calm - N/A   Clear
10:55 PM 42.8 °F 23.0 °F 46% 30.31 in 10.0 mi Calm Calm - N/A   Clear
11:15 PM 41.0 °F 24.8 °F 53% 30.31 in 10.0 mi Calm Calm - N/A   Clear
11:35 PM 41.0 °F 26.6 °F 57% 30.30 in 10.0 mi Calm Calm - N/A   Clear
11:55 PM 41.0 °F 26.6 °F 57% 30.30 in 10.0 mi Calm Calm - N/A   Clear